COSMOS 1275 DEB, 13796

Orbit data source: Space-Track

COSMOS 1275 DEB, 13796 is space debris in LEO originally from a launch on Thu, 04 Jun 1981 UTC launched from the Plesetsk Missile And Space Complex (PKMTR). Debris objects in space refer to the collection of defunct objects orbiting the Earth. Examples of debris include non-operational satellites, rocket bodies, and fragments generated from explosions, collisions, or faulty payload assembly.

Loading next visibility...
Identifier
13796, 1981-053GQ
Orbit
LEO
Country
Flag of CISCIS
Related business
Manufacturer
Unknown
Mission
Spacecraft
Bus & Motor
Unknown
Mass
Unknown
Launch date (UTC)
1981-06-04 (45 years ago)
Launch vehicle
Unknown
Launch site
Plesetsk Missile And Space Complex (PKMTR)
Object type
Payload
Rocket body
Debris
Shape & HBR
Unknown shape, 0.1 m
Radar Cross Section
Small (<0.1 m²)

Expand to show TLE details & history
Last TLE update: 9 hours ago

TLE from 9 hours ago
0 COSMOS 1275 DEB
1 13796U 81053GQ  25353.25798155  .00001052  00000-0  89968-3 0  9994
2 13796  83.0229 276.0157 0110028 275.7251 205.6209 13.83456963157938
Epoch: 2025-12-19T06:11Z
TLE epoch observation values (Epoch: 2025-12-19T06:11:29.605Z)
Latitude
58.58224°
Longitude
-96.45641°
Altitude
1,034.45 km
Speed
7.303 km/s
True Right ascension
05h 38m 04s
True Declination
58° 26' 05"
Sunlit
Object was in full shadow at epoch
Visualization orbit readout
Latitude
Unknown
Longitude
Unknown
Altitude
Unknown
Speed
Unknown
Apparent Right ascension
Unknown
Apparent Declination
Unknown
Sunlit
N/A
Visualization observer readout
Local Sidereal Time
14:09:12
Azimuth
Unknown
Elevation
Unknown
Doppler factor
Unknown
Orbital elements
Apogee altitude
1,029.401 km
Perigee altitude
868.168 km
Semi-major axis
7,326.921 km
Eccentricity
0.011
Inclination
83.0229°
RAAN
276.0157°
Arg. of periapsis
275.7251°
True anomaly
205.08239°
Mean anomaly
205.6209°
Eccentric anomaly
205.35098°
Mean motion
3.46068 °/min
Orbital period
104.03 mins
BSTAR
0.00089968
Loading maneuver chart data...
Computing Atmospheric mass density...
Loading historical data...
Loading historical data...
Loading historical data...
Loading historical data...
Loading historical data...
Loading historical data...
Loading historical data...

Documentation

Showing up to 5 results
|